| time (UTC) | temp C | wind direction | speed KPH | gust KPH | rain 1hr cm | rain 24hr cm | rain mn cm | humidity % | barometer mb |
| 20260506150304 | 5 | 287 | 8.0 | 19.3 | 0.00 | 0.00 | 0.00 | 58 | 1016.7 |
| 20260506144803 | 5 | 283 | 9.7 | 20.9 | 0.00 | 0.00 | 0.00 | 61 | 1016.6 |
| 20260506144303 | 5 | 260 | 8.0 | 19.3 | 0.00 | 0.00 | 0.00 | 61 | 1016.7 |
| 20260506143803 | 5 | 259 | 9.7 | 16.1 | 0.00 | 0.00 | 0.00 | 61 | 1016.7 |
| 20260506143303 | 4 | 259 | 11.3 | 20.9 | 0.00 | 0.00 | 0.00 | 61 | 1016.8 |
| 20260506142803 | 4 | 302 | 9.7 | 20.9 | 0.00 | 0.00 | 0.00 | 61 | 1016.7 |
| 20260506142306 | 5 | 339 | 11.3 | 19.3 | 0.00 | 0.00 | 0.00 | 61 | 1016.7 |
| 20260506141803 | 5 | 346 | 9.7 | 19.3 | 0.00 | 0.00 | 0.00 | 61 | 1016.6 |
| 20260506141303 | 4 | 350 | 4.8 | 20.9 | 0.00 | 0.00 | 0.00 | 61 | 1016.6 |
| 20260506140803 | 5 | 268 | 12.9 | 20.9 | 0.00 | 0.00 | 0.00 | 61 | 1016.6 |
| 20260506140303 | 5 | 251 | 11.3 | 19.3 | 0.00 | 0.00 | 0.00 | 61 | 1016.5 |
| 20260506134803 | 4 | 254 | 11.3 | 24.1 | 0.00 | 0.00 | 0.00 | 61 | 1016.4 |
| 20260506134303 | 4 | 266 | 11.3 | 20.9 | 0.00 | 0.00 | 0.00 | 61 | 1016.4 |
| 20260506133803 | 4 | 268 | 11.3 | 22.5 | 0.00 | 0.00 | 0.00 | 61 | 1016.3 |
| 20260506133303 | 4 | 249 | 12.9 | 20.9 | 0.00 | 0.00 | 0.00 | 61 | 1016.3 |
| 20260506132803 | 4 | 327 | 9.7 | 19.3 | 0.00 | 0.00 | 0.00 | 61 | 1016.3 |
| 20260506132307 | 4 | 0 | 9.7 | 19.3 | 0.00 | 0.00 | 0.00 | 61 | 1016.2 |
| 20260506131803 | 4 | 352 | 9.7 | 19.3 | 0.00 | 0.00 | 0.00 | 61 | 1016.2 |
| 20260506131303 | 3 | 338 | 8.0 | 16.1 | 0.00 | 0.00 | 0.00 | 61 | 1016.3 |
| 20260506130803 | 3 | 297 | 4.8 | 9.7 | 0.00 | 0.00 | 0.00 | 61 | 1016.2 |
| 20260506125803 | 2 | 0 | 3.2 | 8.0 | 0.00 | 0.00 | 0.00 | 69 | 1016.0 |
| 20260506125305 | 2 | 0 | 1.6 | 4.8 | 0.00 | 0.00 | 0.00 | 69 | 1016.0 |
| 20260506124303 | 1 | 0 | 1.6 | 4.8 | 0.00 | 0.00 | 0.00 | 69 | 1015.9 |
| 20260506123804 | 1 | 0 | 1.6 | 3.2 | 0.00 | 0.00 | 0.00 | 69 | 1015.8 |
| 20260506123303 | 0 | 0 | 1.6 | 4.8 | 0.00 | 0.00 | 0.00 | 69 | 1015.7 |
| 20260506122803 | 0 | 0 | 3.2 | 4.8 | 0.00 | 0.00 | 0.00 | 69 | 1015.6 |
| 20260506122305 | 0 | 0 | 0.0 | 4.8 | 0.00 | 0.00 | 0.00 | 69 | 1015.6 |
| 20260506121804 | 0 | 0 | 0.0 | 3.2 | 0.00 | 0.00 | 0.00 | 69 | 1015.6 |
| 20260506121303 | -1 | 0 | 1.6 | 4.8 | 0.00 | 0.00 | 0.00 | 69 | 1015.7 |
| 20260506120803 | -1 | 0 | 0.0 | 1.6 | 0.00 | 0.00 | 0.00 | 69 | 1015.8 |
| 20260506120303 | -1 | 0 | 0.0 | 1.6 | 0.00 | 0.00 | 0.00 | 69 | 1015.8 |
| 20260506115803 | -1 | 0 | 0.0 | 1.6 | 0.00 | 0.00 | 0.00 | 77 | 1015.7 |
| 20260506115306 | -1 | 0 | 0.0 | 0.0 | 0.00 | 0.00 | 0.00 | 77 | 1015.3 |
| 20260506114803 | -2 | 284 | 0.0 | 0.0 | 0.00 | 0.00 | 0.00 | 77 | 1015.2 |
| 20260506114303 | -2 | 0 | 0.0 | 3.2 | 0.00 | 0.00 | 0.00 | 77 | 1015.0 |
| 20260506112804 | -2 | 300 | 0.0 | 1.6 | 0.00 | 0.00 | 0.00 | 77 | 1015.0 |
| 20260506111804 | -2 | 302 | 0.0 | 0.0 | 0.00 | 0.00 | 0.00 | 77 | 1015.0 |
| 20260506111304 | -3 | 302 | 0.0 | 0.0 | 0.00 | 0.00 | 0.00 | 77 | 1015.0 |
| 20260506110803 | -3 | 302 | 0.0 | 0.0 | 0.00 | 0.00 | 0.00 | 77 | 1015.1 |
| 20260506110304 | -3 | 302 | 0.0 | 0.0 | 0.00 | 0.00 | 0.00 | 77 | 1015.2 |
| 20260506105803 | -3 | 302 | 0.0 | 0.0 | 0.00 | 0.00 | 0.00 | 73 | 1015.1 |
| 20260506105305 | -2 | 302 | 0.0 | 0.0 | 0.00 | 0.00 | 0.00 | 73 | 1015.0 |
| 20260506104803 | -2 | 302 | 0.0 | 0.0 | 0.00 | 0.00 | 0.00 | 73 | 1015.0 |
| 20260506104303 | -2 | 302 | 0.0 | 0.0 | 0.00 | 0.00 | 0.00 | 73 | 1015.0 |
| 20260506103803 | -2 | 302 | 0.0 | 0.0 | 0.00 | 0.00 | 0.00 | 73 | 1015.0 |
| 20260506103303 | -2 | 302 | 0.0 | 0.0 | 0.00 | 0.00 | 0.00 | 73 | 1014.9 |
| 20260506102803 | -2 | 302 | 0.0 | 0.0 | 0.00 | 0.00 | 0.00 | 73 | 1014.8 |
| 20260506102305 | -2 | 302 | 0.0 | 0.0 | 0.00 | 0.00 | 0.00 | 73 | 1014.7 |
| 20260506101803 | -2 | 302 | 0.0 | 0.0 | 0.00 | 0.00 | 0.00 | 73 | 1014.7 |
| 20260506101304 | -2 | 302 | 0.0 | 0.0 | 0.00 | 0.00 | 0.00 | 73 | 1014.7 |
| 20260506100803 | -2 | 302 | 0.0 | 0.0 | 0.00 | 0.00 | 0.00 | 73 | 1014.7 |
| 20260506100303 | -2 | 302 | 0.0 | 0.0 | 0.00 | 0.00 | 0.00 | 73 | 1014.7 |
| 20260506095803 | -2 | 302 | 0.0 | 0.0 | 0.00 | 0.00 | 0.00 | 70 | 1014.6 |
| 20260506095305 | -2 | 302 | 0.0 | 0.0 | 0.00 | 0.00 | 0.00 | 70 | 1014.5 |
| 20260506094804 | -2 | 302 | 0.0 | 0.0 | 0.00 | 0.00 | 0.00 | 70 | 1014.5 |
| 20260506093303 | -2 | 302 | 0.0 | 1.6 | 0.00 | 0.00 | 0.00 | 70 | 1014.4 |
| 20260506092803 | -2 | 302 | 0.0 | 0.0 | 0.00 | 0.00 | 0.00 | 70 | 1014.4 |
| 20260506092305 | -2 | 302 | 0.0 | 0.0 | 0.00 | 0.00 | 0.00 | 70 | 1014.4 |
| 20260506091804 | -2 | 302 | 0.0 | 0.0 | 0.00 | 0.00 | 0.00 | 70 | 1014.4 |
| 20260506091303 | -2 | 302 | 0.0 | 0.0 | 0.00 | 0.00 | 0.00 | 70 | 1014.5 |
| 20260506090803 | -1 | 302 | 0.0 | 0.0 | 0.00 | 0.00 | 0.00 | 70 | 1014.5 |
| 20260506085803 | -1 | 302 | 0.0 | 0.0 | 0.00 | 0.00 | 0.00 | 68 | 1014.3 |
| 20260506085305 | -1 | 302 | 0.0 | 0.0 | 0.00 | 0.00 | 0.00 | 68 | 1014.3 |
| 20260506084803 | -1 | 302 | 0.0 | 0.0 | 0.00 | 0.00 | 0.00 | 68 | 1014.3 |
| 20260506084303 | -1 | 302 | 0.0 | 0.0 | 0.00 | 0.00 | 0.00 | 68 | 1014.3 |
| 20260506082803 | -1 | 302 | 0.0 | 0.0 | 0.00 | 0.00 | 0.00 | 68 | 1014.3 |
| 20260506081804 | -1 | 302 | 0.0 | 0.0 | 0.00 | 0.00 | 0.00 | 68 | 1014.2 |
| 20260506081304 | -1 | 302 | 0.0 | 0.0 | 0.00 | 0.00 | 0.00 | 68 | 1014.2 |
| 20260506080803 | 0 | 302 | 0.0 | 0.0 | 0.00 | 0.00 | 0.00 | 68 | 1014.2 |
| 20260506072803 | 0 | 301 | 1.6 | 3.2 | 0.00 | 0.00 | 0.00 | 64 | 1013.9 |
| 20260506072305 | 0 | 301 | 1.6 | 3.2 | 0.00 | 0.00 | 0.00 | 64 | 1013.7 |
| 20260506071804 | 0 | 299 | 1.6 | 4.8 | 0.00 | 0.00 | 0.00 | 64 | 1013.7 |
| 20260506070803 | 0 | 318 | 1.6 | 4.8 | 0.00 | 0.00 | 0.00 | 64 | 1013.6 |
| 20260506062305 | 1 | 286 | 3.2 | 4.8 | 0.00 | 0.00 | 0.00 | 58 | 1013.4 |
| 20260506061803 | 1 | 296 | 1.6 | 4.8 | 0.00 | 0.00 | 0.00 | 58 | 1013.3 |
| 20260506061304 | 1 | 296 | 1.6 | 3.2 | 0.00 | 0.00 | 0.00 | 58 | 1013.3 |
| 20260506060803 | 1 | 296 | 1.6 | 4.8 | 0.00 | 0.00 | 0.00 | 58 | 1013.3 |
| 20260506060304 | 1 | 313 | 1.6 | 4.8 | 0.00 | 0.00 | 0.00 | 58 | 1013.3 |
| 20260506051303 | 2 | 282 | 3.2 | 4.8 | 0.00 | 0.00 | 0.00 | 51 | 1013.1 |
| 20260506050814 | 2 | 273 | 3.2 | 4.8 | 0.00 | 0.00 | 0.00 | 51 | 1013.1 |
| 20260506050303 | 2 | 279 | 1.6 | 4.8 | 0.00 | 0.00 | 0.00 | 51 | 1013.0 |
| 20260506044803 | 3 | 284 | 0.0 | 3.2 | 0.00 | 0.00 | 0.00 | 48 | 1012.8 |
| 20260506044303 | 3 | 284 | 1.6 | 4.8 | 0.00 | 0.00 | 0.00 | 48 | 1012.8 |
| 20260506043804 | 3 | 0 | 1.6 | 4.8 | 0.00 | 0.00 | 0.00 | 48 | 1012.7 |
| 20260506043303 | 3 | 0 | 1.6 | 4.8 | 0.00 | 0.00 | 0.00 | 48 | 1012.7 |
| 20260506042804 | 3 | 0 | 1.6 | 4.8 | 0.00 | 0.00 | 0.00 | 48 | 1012.7 |
| 20260506042305 | 3 | 0 | 1.6 | 4.8 | 0.00 | 0.00 | 0.00 | 48 | 1012.7 |
| 20260506041803 | 4 | 0 | 1.6 | 4.8 | 0.00 | 0.00 | 0.00 | 48 | 1012.6 |
| 20260506041304 | 4 | 0 | 1.6 | 8.0 | 0.00 | 0.00 | 0.00 | 48 | 1012.5 |
| 20260506040304 | 4 | 0 | 3.2 | 8.0 | 0.00 | 0.00 | 0.00 | 48 | 1012.5 |
| 20260506035803 | 5 | 0 | 3.2 | 8.0 | 0.00 | 0.00 | 0.00 | 46 | 1012.5 |
| 20260506035306 | 5 | 0 | 3.2 | 8.0 | 0.00 | 0.00 | 0.00 | 46 | 1012.4 |
| 20260506034803 | 5 | 0 | 3.2 | 12.9 | 0.00 | 0.00 | 0.00 | 46 | 1012.4 |
| 20260506034303 | 5 | 0 | 3.2 | 12.9 | 0.00 | 0.00 | 0.00 | 46 | 1012.4 |
| 20260506033803 | 5 | 0 | 4.8 | 9.7 | 0.00 | 0.00 | 0.00 | 46 | 1012.4 |
| 20260506033304 | 5 | 0 | 4.8 | 9.7 | 0.00 | 0.00 | 0.00 | 46 | 1012.3 |
| 20260506032803 | 5 | 0 | 3.2 | 9.7 | 0.00 | 0.00 | 0.00 | 46 | 1012.3 |
| 20260506032305 | 5 | 0 | 4.8 | 12.9 | 0.00 | 0.00 | 0.00 | 46 | 1012.3 |
| 20260506031804 | 6 | 0 | 4.8 | 12.9 | 0.00 | 0.00 | 0.00 | 46 | 1012.3 |
| 20260506031304 | 6 | 0 | 4.8 | 9.7 | 0.00 | 0.00 | 0.00 | 46 | 1012.3 |
| 20260506025803 | 6 | 0 | 4.8 | 12.9 | 0.00 | 0.00 | 0.00 | 40 | 1012.1 |
| 20260506024804 | 6 | 0 | 3.2 | 12.9 | 0.00 | 0.00 | 0.00 | 40 | 1012.1 |
| 20260506024304 | 6 | 0 | 4.8 | 8.0 | 0.00 | 0.00 | 0.00 | 40 | 1011.9 |
| 20260506023803 | 6 | 0 | 4.8 | 12.9 | 0.00 | 0.00 | 0.00 | 40 | 1011.8 |
| 20260506023304 | 6 | 0 | 3.2 | 4.8 | 0.00 | 0.00 | 0.00 | 40 | 1011.8 |
| 20260506022803 | 6 | 0 | 1.6 | 4.8 | 0.00 | 0.00 | 0.00 | 40 | 1011.7 |
| 20260506022305 | 6 | 0 | 3.2 | 8.0 | 0.00 | 0.00 | 0.00 | 40 | 1011.6 |
| 20260506021804 | 6 | 0 | 3.2 | 8.0 | 0.00 | 0.00 | 0.00 | 40 | 1011.5 |
| 20260506021304 | 6 | 0 | 3.2 | 8.0 | 0.00 | 0.00 | 0.00 | 40 | 1011.4 |
| 20260506020803 | 7 | 0 | 1.6 | 4.8 | 0.00 | 0.00 | 0.00 | 40 | 1011.4 |
| 20260506015803 | 7 | 0 | 6.4 | 14.5 | 0.00 | 0.00 | 0.00 | 37 | 1011.3 |
| 20260506015305 | 7 | 0 | 3.2 | 8.0 | 0.00 | 0.00 | 0.00 | 37 | 1011.3 |
| 20260506014804 | 7 | 0 | 4.8 | 12.9 | 0.00 | 0.00 | 0.00 | 37 | 1011.2 |
| 20260506014304 | 7 | 0 | 4.8 | 9.7 | 0.00 | 0.00 | 0.00 | 37 | 1011.1 |
| 20260506013803 | 7 | 0 | 4.8 | 9.7 | 0.00 | 0.00 | 0.00 | 37 | 1011.0 |
| 20260506013303 | 7 | 0 | 4.8 | 16.1 | 0.00 | 0.00 | 0.00 | 37 | 1010.9 |
| 20260506012307 | 7 | 0 | 4.8 | 12.9 | 0.00 | 0.00 | 0.00 | 37 | 1010.9 |
| 20260506011803 | 7 | 0 | 9.7 | 19.3 | 0.00 | 0.00 | 0.00 | 37 | 1010.9 |
| 20260506011303 | 8 | 0 | 8.0 | 16.1 | 0.00 | 0.00 | 0.00 | 37 | 1010.9 |
| 20260506010803 | 8 | 0 | 6.4 | 16.1 | 0.00 | 0.00 | 0.00 | 37 | 1010.8 |
| 20260506010304 | 8 | 0 | 6.4 | 19.3 | 0.00 | 0.00 | 0.00 | 37 | 1010.8 |
| 20260506005804 | 8 | 0 | 8.0 | 20.9 | 0.00 | 0.00 | 0.00 | 37 | 1010.8 |
| 20260506005305 | 8 | 0 | 11.3 | 24.1 | 0.00 | 0.00 | 0.00 | 37 | 1010.7 |
| 20260506004803 | 8 | 0 | 9.7 | 19.3 | 0.00 | 0.00 | 0.00 | 37 | 1010.7 |
| 20260506004303 | 8 | 0 | 4.8 | 19.3 | 0.00 | 0.00 | 0.00 | 37 | 1010.6 |
| 20260506003804 | 8 | 0 | 9.7 | 19.3 | 0.00 | 0.00 | 0.00 | 37 | 1010.5 |
| 20260506003303 | 8 | 0 | 9.7 | 22.5 | 0.00 | 0.00 | 0.00 | 37 | 1010.5 |
| 20260506002803 | 8 | 0 | 9.7 | 19.3 | 0.00 | 0.00 | 0.00 | 37 | 1010.5 |
| 20260506002305 | 8 | 0 | 6.4 | 14.5 | 0.00 | 0.00 | 0.00 | 37 | 1010.5 |
| 20260506001803 | 8 | 0 | 9.7 | 25.7 | 0.00 | 0.00 | 0.00 | 37 | 1010.4 |
| 20260506001304 | 9 | 0 | 8.0 | 20.9 | 0.00 | 0.00 | 0.00 | 37 | 1010.4 |
| 20260506000804 | 9 | 0 | 8.0 | 22.5 | 0.00 | 0.00 | 0.00 | 37 | 1010.4 |
| 20260506000303 | 9 | 0 | 8.0 | 19.3 | 0.00 | 0.00 | 0.00 | 37 | 1010.3 |
| 20260505235803 | 9 | 0 | 11.3 | 22.5 | 0.00 | 0.00 | 0.00 | 37 | 1010.2 |
| 20260505234803 | 9 | 0 | 14.5 | 19.3 | 0.00 | 0.00 | 0.00 | 37 | 1010.2 |
| 20260505234303 | 9 | 0 | 11.3 | 19.3 | 0.00 | 0.00 | 0.00 | 37 | 1010.2 |
| 20260505233804 | 9 | 0 | 6.4 | 14.5 | 0.00 | 0.00 | 0.00 | 37 | 1010.2 |
| 20260505233303 | 9 | 0 | 8.0 | 20.9 | 0.00 | 0.00 | 0.00 | 37 | 1010.2 |
| 20260505232803 | 9 | 0 | 16.1 | 29.0 | 0.00 | 0.00 | 0.00 | 37 | 1010.2 |
| 20260505232305 | 9 | 0 | 12.9 | 20.9 | 0.00 | 0.00 | 0.00 | 37 | 1010.2 |
| 20260505231803 | 9 | 0 | 8.0 | 22.5 | 0.00 | 0.00 | 0.00 | 37 | 1010.0 |
| 20260505231303 | 9 | 0 | 11.3 | 19.3 | 0.00 | 0.00 | 0.00 | 37 | 1010.1 |
| 20260505230803 | 9 | 0 | 11.3 | 20.9 | 0.00 | 0.00 | 0.00 | 37 | 1010.1 |
| 20260505230303 | 10 | 0 | 9.7 | 20.9 | 0.00 | 0.00 | 0.00 | 37 | 1010.1 |
| 20260505225803 | 10 | 0 | 12.9 | 22.5 | 0.00 | 0.00 | 0.00 | 36 | 1010.1 |
| 20260505224804 | 10 | 0 | 11.3 | 22.5 | 0.00 | 0.00 | 0.00 | 36 | 1010.1 |
| 20260505224303 | 10 | 0 | 11.3 | 25.7 | 0.00 | 0.00 | 0.00 | 36 | 1010.2 |
| 20260505223803 | 10 | 0 | 14.5 | 29.0 | 0.00 | 0.00 | 0.00 | 36 | 1010.1 |
| 20260505223303 | 10 | 0 | 11.3 | 20.9 | 0.00 | 0.00 | 0.00 | 36 | 1010.2 |
| 20260505222803 | 10 | 0 | 9.7 | 27.4 | 0.00 | 0.00 | 0.00 | 36 | 1010.2 |
| 20260505222305 | 10 | 0 | 9.7 | 20.9 | 0.00 | 0.00 | 0.00 | 36 | 1010.1 |
| 20260505221803 | 10 | 0 | 11.3 | 20.9 | 0.00 | 0.00 | 0.00 | 36 | 1010.1 |
| 20260505221303 | 10 | 0 | 8.0 | 25.7 | 0.00 | 0.00 | 0.00 | 36 | 1010.1 |
| 20260505220803 | 10 | 0 | 12.9 | 24.1 | 0.00 | 0.00 | 0.00 | 36 | 1010.1 |
| 20260505220304 | 10 | 0 | 11.3 | 27.4 | 0.00 | 0.00 | 0.00 | 36 | 1010.1 |
| 20260505215803 | 10 | 0 | 12.9 | 20.9 | 0.00 | 0.00 | 0.00 | 37 | 1010.1 |
| 20260505215305 | 11 | 0 | 11.3 | 22.5 | 0.00 | 0.00 | 0.00 | 37 | 1010.1 |
| 20260505214803 | 10 | 0 | 11.3 | 27.4 | 0.00 | 0.00 | 0.00 | 37 | 1010.1 |
| 20260505214303 | 10 | 0 | 12.9 | 29.0 | 0.00 | 0.00 | 0.00 | 37 | 1010.2 |
| 20260505213803 | 10 | 0 | 14.5 | 27.4 | 0.00 | 0.00 | 0.00 | 37 | 1010.2 |
| 20260505213304 | 10 | 0 | 8.0 | 16.1 | 0.00 | 0.00 | 0.00 | 37 | 1010.2 |
| 20260505212803 | 10 | 0 | 14.5 | 27.4 | 0.00 | 0.00 | 0.00 | 37 | 1010.2 |
| 20260505212305 | 11 | 0 | 12.9 | 24.1 | 0.00 | 0.00 | 0.00 | 37 | 1010.2 |
| 20260505211803 | 10 | 0 | 12.9 | 24.1 | 0.00 | 0.00 | 0.00 | 37 | 1010.2 |
| 20260505211303 | 10 | 0 | 6.4 | 19.3 | 0.00 | 0.00 | 0.00 | 37 | 1010.2 |
| 20260505210803 | 10 | 0 | 8.0 | 16.1 | 0.00 | 0.00 | 0.00 | 37 | 1010.2 |
| 20260505210304 | 10 | 0 | 8.0 | 16.1 | 0.00 | 0.00 | 0.00 | 37 | 1010.2 |
| 20260505205804 | 10 | 0 | 9.7 | 19.3 | 0.00 | 0.00 | 0.00 | 39 | 1010.2 |
| 20260505205305 | 10 | 0 | 11.3 | 29.0 | 0.00 | 0.00 | 0.00 | 39 | 1010.3 |
| 20260505204804 | 10 | 0 | 4.8 | 20.9 | 0.00 | 0.00 | 0.00 | 39 | 1010.4 |
| 20260505204304 | 10 | 0 | 11.3 | 22.5 | 0.00 | 0.00 | 0.00 | 39 | 1010.4 |
| 20260505203803 | 10 | 0 | 8.0 | 24.1 | 0.00 | 0.00 | 0.00 | 39 | 1010.2 |
| 20260505203303 | 10 | 0 | 9.7 | 19.3 | 0.00 | 0.00 | 0.00 | 39 | 1010.3 |
| 20260505202306 | 10 | 0 | 14.5 | 22.5 | 0.00 | 0.00 | 0.00 | 39 | 1010.5 |
| 20260505201304 | 10 | 0 | 11.3 | 25.7 | 0.00 | 0.00 | 0.00 | 39 | 1010.4 |
| 20260505200804 | 10 | 0 | 4.8 | 25.7 | 0.00 | 0.00 | 0.00 | 39 | 1010.4 |
| 20260505200304 | 10 | 0 | 14.5 | 32.2 | 0.00 | 0.00 | 0.00 | 39 | 1010.5 |
| 20260505195803 | 11 | 0 | 9.7 | 32.2 | 0.00 | 0.00 | 0.00 | 38 | 1010.5 |
| 20260505195305 | 11 | 0 | 17.7 | 32.2 | 0.00 | 0.00 | 0.00 | 38 | 1010.6 |
| 20260505194303 | 11 | 0 | 12.9 | 25.7 | 0.00 | 0.00 | 0.00 | 38 | 1010.6 |
| 20260505193803 | 11 | 0 | 9.7 | 20.9 | 0.00 | 0.00 | 0.00 | 38 | 1010.5 |
| 20260505193303 | 10 | 0 | 11.3 | 24.1 | 0.00 | 0.00 | 0.00 | 38 | 1010.7 |
| 20260505192803 | 10 | 0 | 8.0 | 19.3 | 0.00 | 0.00 | 0.00 | 38 | 1010.6 |
| 20260505192305 | 10 | 0 | 11.3 | 24.1 | 0.00 | 0.00 | 0.00 | 38 | 1010.6 |
| 20260505191803 | 9 | 0 | 12.9 | 22.5 | 0.00 | 0.00 | 0.00 | 38 | 1010.7 |
| 20260505191303 | 9 | 0 | 12.9 | 20.9 | 0.00 | 0.00 | 0.00 | 38 | 1010.7 |
| 20260505190804 | 9 | 0 | 11.3 | 24.1 | 0.00 | 0.00 | 0.00 | 38 | 1010.7 |
| 20260505190303 | 10 | 0 | 6.4 | 22.5 | 0.00 | 0.00 | 0.00 | 38 | 1010.6 |
| 20260505185804 | 9 | 0 | 12.9 | 37.0 | 0.00 | 0.00 | 0.00 | 42 | 1010.6 |
| 20260505183804 | 9 | 0 | 11.3 | 20.9 | 0.00 | 0.00 | 0.00 | 42 | 1010.6 |
| 20260505183304 | 9 | 0 | 11.3 | 32.2 | 0.00 | 0.00 | 0.00 | 42 | 1010.6 |
| 20260505182803 | 10 | 0 | 8.0 | 24.1 | 0.00 | 0.00 | 0.00 | 42 | 1010.5 |
| 20260505181803 | 10 | 0 | 11.3 | 22.5 | 0.00 | 0.00 | 0.00 | 42 | 1010.6 |
| 20260505181303 | 10 | 0 | 9.7 | 24.1 | 0.00 | 0.00 | 0.00 | 42 | 1010.5 |
| 20260505180804 | 8 | 0 | 9.7 | 19.3 | 0.00 | 0.00 | 0.00 | 42 | 1010.6 |
| 20260505180303 | 8 | 0 | 11.3 | 22.5 | 0.00 | 0.00 | 0.00 | 42 | 1010.6 |
| 20260505175804 | 8 | 0 | 14.5 | 25.7 | 0.00 | 0.00 | 0.00 | 39 | 1010.5 |
| 20260505175305 | 9 | 0 | 9.7 | 24.1 | 0.00 | 0.00 | 0.00 | 39 | 1010.5 |
| 20260505174803 | 9 | 0 | 14.5 | 24.1 | 0.00 | 0.00 | 0.00 | 39 | 1010.5 |
| 20260505174303 | 9 | 0 | 9.7 | 24.1 | 0.00 | 0.00 | 0.00 | 39 | 1010.4 |
| 20260505173804 | 9 | 0 | 8.0 | 27.4 | 0.00 | 0.00 | 0.00 | 39 | 1010.4 |
| 20260505172803 | 9 | 0 | 8.0 | 22.5 | 0.00 | 0.00 | 0.00 | 39 | 1010.4 |
| 20260505172305 | 9 | 0 | 9.7 | 19.3 | 0.00 | 0.00 | 0.00 | 39 | 1010.6 |
| 20260505171804 | 8 | 0 | 11.3 | 32.2 | 0.00 | 0.00 | 0.00 | 39 | 1010.5 |
| 20260505171304 | 8 | 0 | 9.7 | 19.3 | 0.00 | 0.00 | 0.00 | 39 | 1010.5 |
| 20260505170803 | 9 | 0 | 11.3 | 20.9 | 0.00 | 0.00 | 0.00 | 39 | 1010.6 |
| 20260505170304 | 9 | 0 | 11.3 | 22.5 | 0.00 | 0.00 | 0.00 | 39 | 1010.5 |
| 20260505165803 | 9 | 0 | 11.3 | 16.1 | 0.00 | 0.00 | 0.00 | 43 | 1010.6 |
| 20260505165306 | 9 | 0 | 4.8 | 24.1 | 0.00 | 0.00 | 0.00 | 43 | 1010.6 |
| 20260505164803 | 9 | 0 | 8.0 | 24.1 | 0.00 | 0.00 | 0.00 | 43 | 1010.5 |
| 20260505164303 | 9 | 0 | 6.4 | 19.3 | 0.00 | 0.00 | 0.00 | 43 | 1010.5 |
| 20260505163804 | 9 | 0 | 11.3 | 32.2 | 0.00 | 0.00 | 0.00 | 43 | 1010.5 |
| 20260505163303 | 8 | 0 | 4.8 | 16.1 | 0.00 | 0.00 | 0.00 | 43 | 1010.5 |
| 20260505162803 | 8 | 0 | 9.7 | 20.9 | 0.00 | 0.00 | 0.00 | 43 | 1010.7 |
| 20260505162306 | 8 | 0 | 12.9 | 24.1 | 0.00 | 0.00 | 0.00 | 43 | 1010.6 |
| 20260505161304 | 9 | 0 | 14.5 | 25.7 | 0.00 | 0.00 | 0.00 | 43 | 1010.7 |
| 20260505160803 | 9 | 0 | 12.9 | 29.0 | 0.00 | 0.00 | 0.00 | 43 | 1010.7 |
| 20260505153304 | 8 | 0 | 11.3 | 24.1 | 0.00 | 0.00 | 0.00 | 45 | 1010.5 |
| 20260505152803 | 8 | 0 | 8.0 | 16.1 | 0.00 | 0.00 | 0.00 | 45 | 1010.4 |
| 20260505152305 | 8 | 0 | 11.3 | 24.1 | 0.00 | 0.00 | 0.00 | 45 | 1010.4 |
| 20260505151304 | 8 | 0 | 8.0 | 20.9 | 0.00 | 0.00 | 0.00 | 45 | 1010.3 |